Date,TemperatureHighF,TemperatureAvgF,TemperatureLowF,DewpointHighF,DewpointAvgF,DewpointLowF,HumidityHigh,HumidityAvg,HumidityLow,PressureMaxIn,PressureMinIn,WindSpeedMaxMPH,WindSpeedAvgMPH,GustSpeedMaxMPH,PrecipitationSumIn
2013-9-1,81.5,72.1,64.9,74.9,68.5,62.8,93,89,73,29.78,29.69,7,0,12,0.21
2013-9-2,78.7,70.5,63.1,74.5,65.9,56.4,94,86,72,29.75,29.64,15,3,21,0.01
2013-9-3,67.0,62.4,58.3,60.5,57.7,54.5,90,84,77,29.92,29.74,11,3,18,0.00
2013-9-4,73.9,65.8,54.1,64.8,58.8,51.8,93,79,49,29.96,29.91,15,4,24,0.02
2013-9-5,65.7,57.8,46.5,63.3,50.6,43.1,93,79,51,30.20,29.94,10,2,17,0.00
2013-9-6,67.3,54.6,42.0,55.9,47.8,40.4,94,80,49,30.26,30.06,8,1,13,0.00
2013-9-7,66.6,60.4,52.6,64.5,57.7,50.6,93,91,79,30.06,29.83,13,1,20,0.30
2013-9-8,68.0,62.0,49.2,65.9,54.8,47.3,93,79,54,30.07,29.82,10,3,22,0.01
2013-9-9,71.7,58.9,43.6,65.5,54.1,42.0,94,85,64,30.10,29.90,8,1,13,0.00
2013-9-10,85.3,77.4,68.5,74.8,70.9,64.9,91,81,67,29.95,29.84,19,6,28,0.05
2013-9-11,85.5,78.7,72.4,74.8,72.3,69.5,92,81,67,29.97,29.83,17,5,26,0.29
2013-9-12,73.5,67.2,56.2,70.1,64.1,52.8,93,90,77,29.89,29.68,14,2,21,0.48
2013-9-13,59.6,53.4,49.7,56.7,49.7,45.1,92,87,79,30.01,29.73,11,3,14,0.00
2013-9-14,63.2,52.9,46.0,53.0,44.6,35.7,93,75,39,30.10,30.00,8,2,12,0.00
2013-9-15,66.7,56.7,45.9,57.0,51.4,44.3,94,83,65,30.11,30.01,11,2,17,0.10
2013-9-16,55.2,50.7,40.6,53.5,48.1,38.8,94,91,75,30.35,30.03,10,2,17,0.04
2013-9-17,65.8,49.0,35.6,52.5,42.8,34.0,95,81,51,30.46,30.25,8,0,14,0.00
2013-9-18,72.8,54.8,39.2,60.4,47.1,37.6,94,78,45,30.25,30.06,7,0,12,0.00
2013-9-19,75.3,59.0,46.0,64.3,54.5,44.3,98,86,62,30.09,29.95,9,1,13,0.00
2013-9-20,80.2,70.0,53.1,70.4,63.5,51.1,94,81,69,29.96,29.68,9,2,17,0.00
2013-9-21,73.9,63.2,53.5,68.0,60.6,50.3,94,91,79,29.72,29.57,14,2,30,3.15
2013-9-22,54.4,51.5,49.1,50.2,46.1,42.6,95,82,69,30.01,29.72,13,3,15,0.00
2013-9-23,59.3,50.5,42.3,49.4,43.9,40.1,94,79,54,30.14,30.01,8,1,12,0.00
2013-9-24,64.4,49.7,38.1,54.3,44.2,36.5,94,83,44,30.14,29.99,7,1,9,0.00
2013-9-25,69.3,51.7,38.8,58.2,45.8,37.2,94,82,53,30.00,29.91,8,1,13,0.00
2013-9-26,69.7,53.9,40.0,57.6,48.1,38.1,94,82,56,30.12,29.97,9,1,12,0.00
2013-9-27,68.1,56.0,45.4,58.7,51.4,43.5,94,85,69,30.23,30.12,8,1,13,0.00
2013-9-28,75.9,58.5,44.2,63.6,52.2,42.3,94,82,52,30.25,30.11,3,0,8,0.01
2013-9-29,75.3,59.6,46.2,64.3,53.6,44.3,94,82,55,30.11,29.94,9,1,15,0.00
2013-9-30,71.9,63.5,55.7,63.0,59.4,53.7,93,87,72,29.96,29.90,10,2,17,0.00